MFX635 UZTT-UZFF

Flight info

Callsign MFX635
Flight time N/A
Altitude 17000
Route TISIB2C TISIB DCT ESIBO DCT KOLIX DCT EKLER EKLER2Z
Aircraft A20N/M-SDE2E3FGHIRWXY/LB1

Departure

Time 2026-04-25 12:03
Airport Tashkent International Airport (UZTT)

Arrival

Time N/A
Airport Fergana International Airport (UZFF)
Time Latitude Longitude Altitude Speed Heading
2026-04-25 11:34 41.25156 69.26293 1424 ft 0 kts 180°
2026-04-25 11:51 41.25171 69.26293 1425 ft 2 kts 180°
2026-04-25 11:51 41.25186 69.26292 1425 ft 2 kts 160°
2026-04-25 11:51 41.25198 69.26282 1425 ft 1 kts 139°
2026-04-25 11:52 41.25202 69.26269 1425 ft 2 kts 82°
2026-04-25 11:52 41.25201 69.26261 1425 ft 0 kts 83°
2026-04-25 11:54 41.25201 69.26263 1425 ft 0 kts 88°
2026-04-25 11:54 41.25201 69.26301 1425 ft 3 kts 90°
2026-04-25 11:55 41.25201 69.26335 1425 ft 4 kts 91°
2026-04-25 11:55 41.25200 69.26380 1425 ft 5 kts 89°
2026-04-25 11:55 41.25200 69.26436 1425 ft 6 kts 91°
2026-04-25 11:55 41.25192 69.26498 1425 ft 7 kts 93°
2026-04-25 11:56 41.25191 69.26571 1425 ft 8 kts 89°
2026-04-25 11:56 41.25191 69.26653 1425 ft 9 kts 90°
2026-04-25 11:56 41.25201 69.26737 1425 ft 9 kts 31°
2026-04-25 11:56 41.25263 69.26778 1425 ft 10 kts 47°
2026-04-25 11:57 41.25309 69.26856 1425 ft 11 kts 52°
2026-04-25 11:57 41.25359 69.26939 1425 ft 11 kts 49°
2026-04-25 11:57 41.25412 69.27026 1425 ft 12 kts 52°
2026-04-25 11:57 41.25467 69.27118 1425 ft 12 kts 51°
2026-04-25 11:58 41.25522 69.27212 1425 ft 13 kts 52°
2026-04-25 11:58 41.25566 69.27321 1425 ft 13 kts 77°
2026-04-25 11:58 41.25581 69.27446 1425 ft 13 kts 81°
2026-04-25 11:58 41.25594 69.27574 1425 ft 14 kts 81°
2026-04-25 11:59 41.25609 69.27706 1425 ft 14 kts 81°
2026-04-25 11:59 41.25625 69.27841 1425 ft 14 kts 81°
2026-04-25 11:59 41.25640 69.27977 1425 ft 15 kts 82°
2026-04-25 12:00 41.25670 69.28257 1425 ft 15 kts 82°
2026-04-25 12:00 41.25686 69.28400 1425 ft 15 kts 82°
2026-04-25 12:00 41.25720 69.28689 1425 ft 15 kts 79°
2026-04-25 12:01 41.25736 69.28833 1425 ft 15 kts 84°
2026-04-25 12:01 41.25811 69.28903 1425 ft 13 kts 29°
2026-04-25 12:01 41.25903 69.28931 1425 ft 14 kts 330°
2026-04-25 12:01 41.25925 69.28844 1425 ft 0 kts 262°
2026-04-25 12:02 41.25925 69.28843 1425 ft 0 kts 262°
2026-04-25 12:02 41.25918 69.28787 1425 ft 16 kts 261°
2026-04-25 12:02 41.25873 69.28401 1425 ft 77 kts 259°
2026-04-25 12:03 41.25766 69.27403 1425 ft 138 kts 261°
2026-04-25 12:03 41.25624 69.26057 1854 ft 149 kts 261°
2026-04-25 12:03 41.25491 69.24734 2422 ft 147 kts 261°
2026-04-25 12:03 41.25339 69.23335 2795 ft 160 kts 260°
2026-04-25 12:04 41.25167 69.21790 3140 ft 178 kts 261°
2026-04-25 12:04 41.24981 69.20110 3549 ft 195 kts 261°
2026-04-25 12:04 41.24770 69.18255 4025 ft 210 kts 257°
2026-04-25 12:04 41.24099 69.16482 4507 ft 226 kts 221°
2026-04-25 12:05 41.22674 69.15675 5175 ft 235 kts 182°
2026-04-25 12:05 41.21101 69.16254 5929 ft 243 kts 146°
2026-04-25 12:05 41.19949 69.17866 6696 ft 248 kts 128°
2026-04-25 12:05 41.18918 69.19704 7476 ft 251 kts 128°
2026-04-25 12:06 41.17869 69.21539 8261 ft 254 kts 129°
2026-04-25 12:06 41.16781 69.23386 9064 ft 256 kts 130°
2026-04-25 12:06 41.15668 69.25247 9872 ft 259 kts 127°
2026-04-25 12:06 41.14936 69.27438 10573 ft 269 kts 100°
2026-04-25 12:07 41.14825 69.29960 11040 ft 286 kts 90°
2026-04-25 12:07 41.14870 69.32667 11452 ft 304 kts 90°
2026-04-25 12:07 41.14893 69.35564 11844 ft 322 kts 91°
2026-04-25 12:07 41.14863 69.38583 12204 ft 339 kts 92°
2026-04-25 12:08 41.14791 69.41809 12530 ft 357 kts 93°
2026-04-25 12:08 41.14695 69.45142 12931 ft 371 kts 94°
2026-04-25 12:08 41.14583 69.48612 13597 ft 376 kts 94°
2026-04-25 12:08 41.14467 69.52053 14285 ft 380 kts 94°
2026-04-25 12:09 41.14345 69.55563 14944 ft 385 kts 94°
2026-04-25 12:09 41.14218 69.59127 15593 ft 389 kts 94°
2026-04-25 12:09 41.14088 69.62711 16228 ft 394 kts 94°